Regional Weather Roundup
Issued by NWS

Home | Current Version | Previous Version | Text Only | Print | Product List | Glossary Off
Versions: 1 2 3 4 5 6 7 8 9 10 11 12 13 14 15 16 17 18 19 20 21 22 23 24 25 26 27 28 29 30 31 32 33 34 35 36 37 38 39 40 41 42 43 44 45 46 47 48 49 50

000
ASUS44 KMEG 040000
RWRTN
TENNESSEE HOURLY STATE WEATHER ROUNDUP
NATIONAL WEATHER SERVICE MEMPHIS TN
700 PM CDT FRI JUL 03 2015

TNZ002-004-019-021-049-052-054-088>092-040100-
WEST TENNESSEE

CITY           SKY/WX    TMP DP  RH WIND       PRES   REMARKS
MEMPHIS INTL   CLOUDY    77  73  87 S12       29.88F
NWS MEMPHIS      N/A     76 N/A N/A MISG        N/A
JACKSON        CLOUDY    76  70  82 SW7       29.91R
DYERSBURG        N/A    N/A N/A N/A MISG        N/A
PARIS          CLOUDY    72  66  83 SW3       29.91R
LEXINGTON      CLOUDY    73  70  88 SW7       29.92R
$$

TNZ008-025-027-028-033-062-065-066-040100-
NORTH MIDDLE TENNESSEE

CITY           SKY/WX    TMP DP  RH WIND       PRES   REMARKS
NASHVILLE      CLOUDY    75  68  78 SW5       29.91S
CLARKSVILLE    PTSUNNY   75  68  78 SW10G16   29.88S
COOKEVILLE     PTSUNNY   75  70  83 W8        29.92R
CROSSVILLE     CLOUDY    73  64  73 W10G18    29.96F
$$

TNZ061-075-076-078-094-096-097-040100-
SOUTH MIDDLE TENNESSEE

CITY           SKY/WX    TMP DP  RH WIND       PRES   REMARKS
FAYETTEVILLE     N/A     72  64  78 W5        29.95R
TULLAHOMA      SUNNY     72  64  78 SW5       29.96F
WINCHESTER     MOSUNNY   73  66  78 CALM      29.97R
SHELBYVILLE    PTSUNNY   75  70  83 SW3         N/A
$$

TNZ017-018-042-046-047-040100-
NORTHEAST TENNESSEE

CITY           SKY/WX    TMP DP  RH WIND       PRES   REMARKS
TRI CITIES     CLOUDY    72  69  90 SW10      29.93S
ELIZABETHTON   CLOUDY    70  66  88 W6        29.94R
$$

TNZ012-013-036-069-073-074-040100-
CENTRAL EAST TENNESSEE

CITY           SKY/WX    TMP DP  RH WIND       PRES   REMARKS
KNOXVILLE      CLOUDY    75  68  78 S10       29.92S
OAK RIDGE      MOCLDY    76  68  76 VRB6      29.93R
GATLINBURG     PTCLDY    73  64  73 SW9       29.92S
$$

TNZ083-085-099-040100-
SOUTHEAST TENNESSEE

CITY           SKY/WX    TMP DP  RH WIND       PRES   REMARKS
CHATTANOOGA    PTSUNNY   77  65  66 SW8       29.95R
$$

SKY/WX REPORTED AS FAIR MEANS FEW OR NO CLOUDS BELOW
12 THOUSAND FEET.



USA.gov is the U.S. government's official web portal to all federal, state and local government web resources and services.